Location: Samoth
(37.3328°N, 88.7876°W)
Time: 19:47:05
(UTC+00:00)

X-37B - Visible Passes

Search period start: 25 September 2021 00:00
Search period end: 05 October 2021 00:00
Orbit: 381 x 393 km, 45.0° (Epoch: 29 August)

Date Brightness Start Highest point End Pass type
(mag) Time Alt. Az. Time Alt. Az. Time Alt. Az.
25 Sep 2.5 09:49:38 26° NNE 09:49:38 26° NNE 09:51:25 10° NE visible
26 Sep 2.4 10:26:12 19° NNW 10:27:00 21° N 10:29:33 10° NE visible
27 Sep 3.6 09:30:29 14° NE 09:30:29 14° NE 09:31:11 10° NE visible
27 Sep 2.7 11:03:17 10° NW 11:05:42 20° N 11:08:08 10° NE visible
28 Sep 2.7 10:07:03 19° N 10:07:05 19° N 10:09:30 10° NE visible
29 Sep 2.6 10:43:38 12° NW 10:45:47 23° N 10:48:22 10° ENE visible
30 Sep 3.1 09:47:59 18° NNE 09:47:59 18° NNE 09:49:36 10° NE visible
30 Sep 1.6 11:21:17 10° NW 11:24:19 43° NNE 11:27:21 10° E visible
01 Oct 2.2 10:24:41 23° NNW 10:25:49 29° NNE 10:28:38 10° E visible
02 Oct 3.8 09:29:10 14° ENE 09:29:10 14° ENE 09:29:50 10° ENE visible
02 Oct 0.7 11:01:28 13° WNW 11:04:13 76° NNE 11:07:23 10° ESE visible
03 Oct 1.6 10:06:03 42° NE 10:06:03 42° NE 10:08:49 10° E visible
04 Oct 0.7 10:43:03 35° W 10:44:03 54° SSW 10:47:08 10° SE visible
